Flag for Colombia Weather past 2 weeks in Cali, Colombia

Now
81 °F

Scattered clouds.


Feels Like: 83 °F
Forecast: 65 / 85 °F
Wind: 3 mph from Northeast

Location: Cali / Alfonso Bonillaaragon

Current Time: Jul 24, 2014 at 11:11:14 AM

Latest Report: Jul 24, 2014 at 10:00 AM


Visibility: 5 mi

Pressure: 29.95 "Hg

Humidity: 62%

Dew point: 66 °F

Location of CaliLocation

Historic Weather in Cali — Graph

°F

Cali temperature yesterday

Maximum temperature yesterday: 91 °F (at 1:00 PM)
Minimum temperature yesterday: 70 °F (at 6:00 AM)
Average temperature yesterday: 79 °F

Past Weeks' High & Low Weather Summary

 TemperatureHumidityPressure
High93 °F (Jul 18, 3:00 PM)94% (Jul 10, 5:00 AM)30.04 "Hg (Jul 10, 5:00 AM)
Low64 °F (Jul 19, 5:00 AM)32% (Jul 18, 3:00 PM)29.79 "Hg (Jul 11, 4:00 PM)
Average77 °F70%29.93 "Hg
* Reported Jul 9 10:00 AM — Jul 24 10:00 AM, Cali, Weather by CustomWeather, © 2014

Note: Actual official high and low records may vary slightly from our data, if they occured in-between our weather recording intervals... More about our weather records

Advertising

Cali weather history for previous 24 hours

 ConditionsComfort  
Time TempWeatherWind HumidityBarometerVisibility
10:00 AM
Jul 24
81 °FScattered clouds.3 mph62%29.95 "Hg5 mi
9:00 AM77 °FScattered clouds.3 mph69%29.97 "Hg5 mi
8:00 AM72 °FPassing clouds.2 mph88%29.96 "Hg6 mi
7:00 AM68 °FScattered clouds.3 mph83%29.94 "Hg6 mi
6:00 AM64 °FPassing clouds.3 mph94%29.90 "HgN/A
5:00 AM64 °FPassing clouds.3 mph94%29.90 "HgN/A
4:00 AM66 °FPassing clouds.No wind94%29.89 "HgN/A
3:00 AM68 °FPassing clouds.No wind94%29.91 "HgN/A
2:00 AM70 °FPassing clouds.No wind88%29.92 "HgN/A
1:00 AM70 °FPassing clouds.No wind88%29.93 "HgN/A
12:00 AM72 °FPassing clouds.7 mph83%29.94 "HgN/A
11:00 PM
Jul 23
73 °FPassing clouds.7 mph78%29.94 "HgN/A
10:00 PM75 °FPassing clouds.8 mph74%29.92 "HgN/A
9:00 PM77 °FPassing clouds.5 mph69%29.90 "HgN/A
8:00 PM79 °FPassing clouds.8 mph65%29.88 "HgN/A
7:00 PM81 °FPassing clouds.9 mph62%29.85 "HgN/A
6:00 PM82 °FBroken clouds.12 mph58%29.82 "HgN/A
5:00 PM84 °FBroken clouds.9 mph55%29.81 "HgN/A
4:00 PM88 °FBroken clouds.16 mph49%29.80 "HgN/A
3:00 PM88 °FBroken clouds.7 mph49%29.81 "HgN/A
2:00 PM90 °FScattered clouds.5 mph46%29.83 "HgN/A
1:00 PM91 °FScattered clouds.5 mph41%29.90 "HgN/A
12:00 PM86 °FScattered clouds.7 mph52%29.90 "HgN/A
11:00 AM84 °FScattered clouds.5 mph55%29.94 "HgN/A
Weather by CustomWeather, © 2014

See weather overviewHow to use our weather pages